Recent Files

ID Timestamp Package Filename MD5 CAPE VT MalScore Status
113019 2019-11-21 19:37:40 Extraction 00b78dc3a45166925132bbe6958ff58c266ea384c10a715a1b196c865d4d0c74.exe 755f7c046def52d860d590116dd630ad Emotet None 10.0 reported
113018 2019-11-21 20:16:01 exe f89c6263699ecb4716c0ae9e7033d9f2 f89c6263699ecb4716c0ae9e7033d9f2 None 4.0 reported
113017 2019-11-21 19:31:49 Extraction a4c19fb87f3cee5a2021698a6f28ab702277573ba2bdc03c3a63af341fd6d2bf.exe 66b06247e4b624d870b8b54bdec25565 Emotet None 10.0 reported
113016 2019-11-21 19:30:57 Extraction 1c89eac5861c2c32f97e8aacf0e11b7d7f0650c82c5598f9211e45beed5c04a0.exe fe4509e04f4dbaef0b3d4ff4a76ae03e Emotet None 10.0 reported
113015 2019-11-21 20:12:52 generic A_SUPREME_153832222003.zip 10f35e9484336b3036355590067b758b None 0.0 reported
113014 2019-11-21 19:30:10 Extraction f7f87eb76d626b63f11a9690ed58c880015f2b937cf49ab5dc4155bbcc9ab1ea.exe 9d0696f2f261e7cef494c9d0d245cbeb Emotet None 10.0 reported
113013 2019-11-21 20:12:11 elf f766dbf24c513ea4caa0d2802965c9c8 f766dbf24c513ea4caa0d2802965c9c8 None 0.0 reported
113012 2019-11-21 19:28:44 Extraction cc343f75e28d4060af1d7176e914bacb9baf602f0cb53d70dfecf990d548ee7f.exe 567dff60635200456ccad0452e80af4e Emotet None 10.0 reported
113011 2019-11-21 19:28:47 Extraction 4f905b0ab7bf69e552b5f16c0b190ac7e5efba76c3d12e397719990e43182255.exe 04a92b7f27c2e1ee3915730557f1be50 Emotet None 10.0 reported
113010 2019-11-21 19:28:01 Extraction 2e1aec517897f1bd9f884a27c37052cb7911435972f9eed5bf3717544d454d83.exe 479b171cc6e74b02395effc1d6996493 Emotet None 10.0 reported
113009 2019-11-21 20:16:20 exe 5614b15010b8e5c1aadff3994ffcc16cecd99739c32db7f98b29a9913317a155.exe 755faadebde9111e34a1db1df6a0f1b5 None 10.0 reported
113008 2019-11-21 19:24:51 Extraction 1bc87c4d911e67888cea3efb82865e6b97685fd8dd19d77abbc8831f000d672c 86c0723fa0fc89129820a2fce809b4ea None 10.0 reported
113007 2019-11-21 20:15:23 exe fc4b336aa9499908d17c9322b06ec4e681276b0dc13df86a498933814f1e15f0.exe 52bade5db639f1e712d491b12814fffb Emotet None 10.0 reported
113006 2019-11-21 20:13:19 exe a2dcd047b5441528127ab0ba2f8a391d88051147b801f2e72ce317ddb106c2cd.exe d3b40242efebd5bd693cd764782b4ad6 Emotet None 10.0 reported
113005 2019-11-21 20:12:08 exe 582c0c5e85c8807a4b15aab3356f49f4f44c5fe9df9293b730bb763c0441e801.exe 91cbf00e8f273463107e170bc57150e6 Emotet None 10.0 reported
113004 2019-11-21 20:07:15 exe c3439351f8bd507ff78eb091e5a8402a4552c9a892dea750ca4edd9b8407aadf.exe 6429bc6174a4f9f2036546382f56bd88 Emotet None 10.0 reported
113003 2019-11-21 20:07:00 exe b94a0dda4b9e4ada930c4342726fbb5b17b18fef0c3ea5da97e2fc0acb983cda.exe ac95d3b366b757773ea7b174ca806512 Emotet None 10.0 reported
113002 2019-11-21 20:03:14 elf 62894289d6b77d03da795bc94f9a1043 62894289d6b77d03da795bc94f9a1043 None 0.0 reported
113001 2019-11-21 20:05:21 exe ec8f91c13800430244a342ad01f8b19b58e94bc1d0db0cd1ae2640e7340754d3.exe 302faa44ec66e85c4c844a8793e3b5e7 Emotet None 10.0 reported
113000 2019-11-21 19:22:17 exe 1bc87c4d911e67888cea3efb82865e6b97685fd8dd19d77abbc8831f000d672c 86c0723fa0fc89129820a2fce809b4ea None 10.0 reported
112999 2019-11-21 20:04:19 exe 64b7a19b5d49bce5f079a5239ca4680c89ed814039027361102c47bb7c050af0.exe edbfb5d87bccb26563d7ab3e05d9941c Emotet None 10.0 reported
112998 2019-11-21 20:03:17 exe 1955d27cd6314f28318c79721c09fa63dd3791d00367185ee3e6a43e95ad61fb.exe 5b5cf46987c05969be26a1815ccd96a3 Emotet None 10.0 reported
112997 2019-11-21 19:21:00 Extraction 92c05d988446a3d922ee59b2cb80f78cd93033741e0ac090010172271f057efa.exe 8f9ea7bf04b6b6a0b3451f0796f84e68 Emotet None 10.0 reported
112996 2019-11-21 20:02:42 exe 38e299f00ab6d0ab9622a6a663d6a5c88028a7d7fd6179d5a59d982cdfbc1078.exe f34f5769eed7de647378a031a470ce2e Emotet None 10.0 reported
112995 2019-11-21 19:57:56 exe 49d3f2524a6f3080c52a131e91a9d6e28c481ca68f38755e37f892f36e4982d6.exe d4fe756919019df2c39c8e49bc683539 Emotet None 10.0 reported

Recent URLs

ID Timestamp URL VT MalScore Status
108763 2019-11-11 20:09:30 http://privdl486.bid/go.php?a_aid=577a44716bfd1&chan=1526&fn=SOFTAWER None 9.6 reported
108764 2019-11-11 20:08:44 http://privdl486.bid/go.php?a_aid=577a44716bfd1&chan=1526&fn=SOFTAWER None 2.0 reported
108765 2019-11-11 20:07:59 http://privdl486.bid/go.php?a_aid=577a44716bfd1&chan=1526&fn=SOFTAWER None 7.6 reported
108766 2019-11-11 20:07:53 http://privdl486.bid/go.php?a_aid=577a44716bfd1&chan=1526&fn=SOFTAWER None 7.6 reported
108762 2019-11-11 20:08:32 http://privdl486.bid/go.php?a_aid=577a44716bfd1&chan=1526&fn=SOFTAWER None 7.6 reported
108759 2019-11-11 20:00:46 http://privdl486.bid/go.php?a_aid=577a44716bfd1&chan=1526&fn=SOFTAWER None 0.0 reported
108745 2019-11-11 19:17:14 http://www.groupliwa.com/ None 6.6 reported
108729 2019-11-11 17:38:20 https://drive.google.com/file/d/1_eiPmrBvjU1uyu6aiXB7a-vt66oeQpQt/view?usp=drive_web None 10.0 reported
108712 2019-11-11 14:02:31 http://office365.firewall-gateway.net/py/document.doc None 10.0 reported
108685 2019-11-11 09:15:11 http://w1.msspsz.net/prod/c9cbe8cc-7dc3-451b-93b1-03a308289425/2ae2071e-9bd5-4403-af6f-265e58a8a9f9 None 2.0 reported
108621 2019-11-10 03:40:39 tinyurl.com/OneDrive-Remittance-Nov06 None 7.6 reported
108598 2019-11-09 21:10:44 https://t.co/noaKn3kRnl None 2.0 reported
108570 2019-11-09 18:29:53 https://chehlaoui.com/.web/ None 2.0 reported
108487 2019-11-08 19:06:27 https://www.scribus.net/ None 2.0 reported
108455 2019-11-08 15:01:36 https://bit.ly/34HIciL None 9.6 reported
108441 2019-11-08 14:15:06 https://maxiascencao.pt/ddyryv1k/JNsLRRta/ None 2.0 reported
108440 2019-11-08 14:09:27 https://forms.office.com/Pages/ResponsePage.aspx?id=KQrbVWJAVkig0nJNT3suCbz_apPT6OhFuAGHkPHlGDBUOEpMNjk0RktMQUcwSlE4TEg3R1Q4UzdFQS4u None 2.0 reported
108417 2019-11-08 12:06:48 http://langchaixua.com/wp-content/uploads/ylizc0540/ None 5.1 reported
108413 2019-11-08 11:55:03 https://doktersvandewereld-my.sharepoint.com/personal/ahoogerbrugge_doktersvandewereld_org/_layouts/15/guestaccess.aspx?guestaccesstoken=CofAoWJmCJViO7U795VHouYx9ZAS5lR%2fs1D65N%2bsGKg%3d&docid=1_1a22dd97dfc864fbf979d648f11820d4d&wdFormId=%7B48F488CD%2D451B%2D4C1C%2DA4BB%2DD2B9E7377BD9%7D None 8.6 reported
108411 2019-11-08 10:37:30 http://www.advance-windowstool.life/lp/trfpt/?fd=xsp&x-context=d21pn7celsdk1ijq1ckck03i&utm_source=trfprtwln&utm_campaign=trfprtwln&pxl=TRF4729_TRF4629_RUNT&utm_pubid=ac11393a-0ca7-4761-9d22-99da3d527779&x-at=NWTN None 9.6 reported
108401 2019-11-08 07:47:45 http://4u.fyi/wAOKK None 2.0 reported
108168 2019-11-08 05:34:47 http://pahanlab.com/jay.exe None 9.6 reported
108146 2019-11-08 05:22:44 http://pahanlab.com/jay.exe","$env:temp\bakdraw.exe None 8.6 reported
107952 2019-11-07 21:24:46 https://files.constantcontact.com/0996938c001/6e8a2a4f-40ac-464f-9a70-7c67f0a0da19.pdf None 5.6 reported
107951 2019-11-08 02:55:34 https://www.qireport.net/main.aspx None 2.0 reported

Recent PCAPs

ID Timestamp Filename MD5 MalScore Status
27841 2018-12-20 13:08:22 network (8).pcap 80657e1715d573957c001a20ff246a7e None reported
27827 2018-12-20 12:07:19 network (7).pcap ab487d36057d446b6a8b72091da72f23 None reported
27824 2018-12-20 12:06:21 network (6).pcap 17df5c759d3abfc7e8354604069ed3cf None reported
27823 2018-12-20 12:04:49 network (5).pcap 1afbb40816046495f45b72a1d218739a None reported
27821 2018-12-20 12:03:35 network (4).pcap 0f12a7f89571766b84d531457a5c313e None reported
27820 2018-12-20 12:02:54 network (3).pcap 99248d02ba498dabbb6c2d875513d18a None reported
27814 2018-12-20 11:55:43 network (2).pcap e44af8cf88f64026dfabf262967a3032 None reported
27811 2018-12-20 11:54:50 network.pcap d4b17c1c94a603de52067a1841d12878 None reported
27808 2018-12-20 11:52:22 network (7).pcap 49d2cb0275c4bf8d541c6e0e22e3cbe9 None reported
27800 2018-12-20 11:39:32 network (6).pcap ac6af5cc2abfcc581d1581b470be83a7 None reported
27798 2018-12-20 11:37:15 network (5).pcap ec5c4205b4b9afd657e1f108eb0d53ce None reported
27797 2018-12-20 11:35:41 network (4).pcap 91fd701a7167f9964b07d172fbed8452 None reported
27795 2018-12-20 11:29:56 network (3).pcap 5a60d4a115df45449e0bc4b888df7b80 None reported
27788 2018-12-20 10:47:06 20181210-Dridex.pcap 112dbe343f68837c796a17073ab736a9 None reported
27584 2018-12-19 12:31:56 metrepreter.pcap a81b346410d24d45e7aee18ff6654118 None reported
26545 2018-12-11 20:22:44 DESKTOP-6RBR28C_smash_and_grab_13328.pcap 97fe17abb9477c283e366198f19d5d8f None reported
25934 2018-12-07 13:16:53 2018-10-12-3rd-run-Hookads-campaign-Fallout-EK-sends-AZORult-and-follow-up-malware.pcap 395cb0280667db52402a9ab9ba0f63ad None reported
25640 2018-12-05 21:42:17 7th.pcapng 8f9f98e300487d6fd55af9f7fe993083 None reported
25632 2018-12-05 21:26:29 3rd.pcapng e309da9cf0089c6410b41830e721f9f1 None reported
25527 2018-12-05 13:59:12 d7618d0f-14f6-4a47-956d-42c8a7a4c49a.pcap 55ce746e3d6eea6d8834588ffd3c673a None reported
25378 2018-12-04 15:11:19 7e09b86fcb3762a1b9d126130947cda570f88d75ce16124e53669e32214139f3.pcap aeb5e64fe6dc2d02e739549b72893120 None reported
25230 2018-12-03 19:19:53 1400.cap c458f5c526eea8ed0b0048932ee0fbba None reported
16147 2018-08-29 05:50:32 b2ed534e-0762-4014-ab9a-2b5b15ca2359.pcap bdc32e3f29ab1ffa7a3a8ef64d93bbb9 None reported
16146 2018-08-29 05:17:00 209a4256-0113-471d-b87b-ece9631c19d3.pcap 54b8fdbdb6b226a08923d5d854965079 None reported
15375 2018-08-18 14:00:18 2ebdc6f0-192b-467c-af34-0438d6f431c0.pcap da077969f21fdfaa8dcdd5d72d113d7a None reported